Concord, NH

5:15 AM EDT on August 31, 2016 (GMT -0400)
Concord Municipal

Weather History for KCON - March, 2013

Change the Weather History Date:

Friday, March 15, 2013

  Actual Average Record
Temperature  
Mean Temperature 28 °F 33 °F  
Max Temperature 39 °F 43 °F 68 °F (1945)
Min Temperature 16 °F 22 °F -1 °F (1923)
Degree Days  
Heating Degree Days 37 32  
Month to date heating degree days 468 520  
Since 1 July heating degree days 5397 5780  
Cooling Degree Days 0 0  
Month to date cooling degree days 0 0  
Year to date cooling degree days 0 0  
Moisture  
Dew Point 16 °F    
Average Humidity 57    
Maximum Humidity 85    
Minimum Humidity 29    
Precipitation  
Precipitation 0.01 in 0.10 in 1.10 in (1911)
Month to date precipitation 0.73 1.49  
Year to date precipitation 5.82 6.81  
Snow  
Snow 0.20 in 0.40 in 8.70 in (1916)
Month to date snowfall 4.8 6.3  
Since 1 July snowfall 72.0 53.8  
Snow Depth 6.00 in    
Sea Level Pressure  
Sea Level Pressure 29.71 in    
Wind  
Wind Speed 10 mph (West)    
Max Wind Speed 17 mph    
Max Gust Speed 33 mph    
Visibility 8 miles    
Events Snow    
T = Trace of Precipitation, MM = Missing Value Source: NWS Daily Summary

Daily Weather History Graph

Daily Weather History Graph

Search for Another Location

Airport or City:

Trip Planner

Search our weather history database for the weather conditions in past years. The results will help you decide how hot, cold, wet, or windy it might be!

Date:

Astronomy

Mar. 15, 2013 Rise Set
Actual Time 6:57 AM EDT 6:52 PM EDT
Civil Twilight 6:29 AM EDT 7:21 PM EDT
Nautical Twilight 5:56 AM EDT 7:54 PM EDT
Astronomical Twilight 5:22 AM EDT 8:27 PM EDT
Moon 8:39 AM EDT (3/15) 11:11 PM EDT (3/15)
Length of Visible Light 12h 51m
Length of Day
11h 54m
Waxing Crescent, 15% of the Moon is Illuminated
Mar 15
Waxing Crescent
Mar 19
First Quarter
Mar 27
Full
Apr 3
Last Quarter
Apr 10
New

Hourly Weather History & Observations

Time (EDT) Temp. Windchill Dew Point Humidity Pressure Visibility Wind Dir Wind Speed Gust Speed Precip Events Conditions
12:51 AM 19.0 °F 6.8 °F 3.9 °F 52% 29.84 in 10.0 mi NW 11.5 mph 19.6 mph N/A   Mostly Cloudy
1:51 AM 19.0 °F 5.6 °F 3.0 °F 50% 29.85 in 10.0 mi NW 13.8 mph 26.5 mph N/A   Mostly Cloudy
2:51 AM 18.0 °F 2.6 °F 3.0 °F 52% 29.85 in 10.0 mi NW 17.3 mph 28.8 mph N/A   Partly Cloudy
3:51 AM 17.1 °F 4.3 °F 1.9 °F 52% 29.84 in 10.0 mi NW 11.5 mph 19.6 mph N/A   Clear
4:51 AM 16.0 °F 1.7 °F 1.9 °F 54% 29.84 in 10.0 mi NW 13.8 mph 19.6 mph N/A   Clear
5:51 AM 16.0 °F 4.4 °F 3.0 °F 57% 29.85 in 10.0 mi WNW 9.2 mph 19.6 mph N/A   Clear
6:51 AM 16.0 °F 7.4 °F 3.9 °F 59% 29.86 in 10.0 mi NW 5.8 mph - N/A   Clear
7:51 AM 18.0 °F 9.8 °F 5.0 °F 57% 29.85 in 10.0 mi Variable 5.8 mph - N/A   Clear
8:51 AM 19.9 °F 9.3 °F 6.1 °F 55% 29.85 in 10.0 mi WNW 9.2 mph - N/A   Clear
9:51 AM 21.9 °F 8.7 °F 6.1 °F 51% 29.84 in 10.0 mi WNW 15.0 mph 19.6 mph N/A   Clear
10:51 AM 27.0 °F 18.7 °F 7.0 °F 43% 29.81 in 10.0 mi West 8.1 mph - N/A   Partly Cloudy
11:51 AM 28.9 °F 19.8 °F 5.0 °F 36% 29.79 in 10.0 mi West 10.4 mph - N/A   Mostly Cloudy
12:51 PM 32.0 °F 27.5 °F 6.1 °F 34% 29.75 in 10.0 mi West 4.6 mph - N/A   Clear
1:51 PM 35.1 °F 28.6 °F 6.1 °F 30% 29.70 in 10.0 mi WSW 8.1 mph - N/A   Clear
2:51 PM 37.0 °F 31.0 °F 9.0 °F 31% 29.66 in 10.0 mi SW 8.1 mph - N/A   Overcast
3:51 PM 37.0 °F 29.8 °F 10.9 °F 34% 29.64 in 10.0 mi SW 10.4 mph - N/A   Overcast
4:51 PM 36.0 °F 26.3 °F 19.0 °F 50% 29.63 in 10.0 mi WSW 16.1 mph 26.5 mph N/A   Overcast
5:51 PM 33.1 °F 26.9 °F 23.0 °F 66% 29.63 in 10.0 mi WSW 6.9 mph - N/A   Overcast
6:51 PM 32.0 °F 25.6 °F 25.0 °F 75% 29.63 in 5.0 mi WSW 6.9 mph - 0.00 in Snow Light Snow
7:51 PM 32.0 °F 28.7 °F 25.0 °F 75% 29.63 in 10.0 mi SSW 3.5 mph - 0.00 in   Overcast
8:06 PM 32.0 °F 28.7 °F 26.6 °F 80% 29.61 in 2.5 mi South 3.5 mph - 0.00 in Snow Light Snow
8:12 PM 30.2 °F 24.3 °F 26.6 °F 86% 29.61 in 1.5 mi SSW 5.8 mph - 0.00 in Snow Light Snow
8:16 PM 32.0 °F 27.5 °F 26.6 °F 80% 29.62 in 3.0 mi SW 4.6 mph - 0.00 in Snow Light Snow
8:51 PM 30.9 °F - 27.0 °F 85% 29.63 in 10.0 mi Calm Calm - 0.00 in   Overcast
9:51 PM 30.9 °F 27.5 °F 28.0 °F 89% 29.63 in 7.0 mi SSW 3.5 mph - 0.00 in Snow Light Snow
10:07 PM 30.2 °F 25.4 °F 28.4 °F 93% 29.60 in 2.5 mi SSW 4.6 mph - 0.00 in Snow Light Snow
10:14 PM 30.2 °F 25.4 °F 28.4 °F 93% 29.60 in 8.0 mi SSW 4.6 mph - 0.00 in Snow Light Snow
10:51 PM 28.9 °F 25.2 °F 27.0 °F 92% 29.62 in 10.0 mi SSW 3.5 mph - 0.00 in   Mostly Cloudy
11:02 PM 30.2 °F 18.9 °F 28.4 °F 93% 29.62 in 1.5 mi West 16.1 mph 28.8 mph 0.00 in Snow Light Snow
11:04 PM 30.2 °F 19.3 °F 28.4 °F 93% 29.63 in 1.0 mi WNW 15.0 mph 28.8 mph 0.00 in Snow Light Snow
11:11 PM 30.2 °F 18.1 °F 28.4 °F 93% 29.63 in 0.8 mi NW 18.4 mph 33.4 mph 0.01 in Snow Light Snow
11:14 PM 30.2 °F 18.1 °F 28.4 °F 93% 29.64 in 1.8 mi NW 18.4 mph 33.4 mph 0.01 in Snow Light Snow
11:17 PM 30.2 °F 18.9 °F 28.4 °F 93% 29.64 in 3.0 mi NW 16.1 mph 33.4 mph 0.01 in Snow Light Snow
11:35 PM 30.2 °F 21.9 °F 24.8 °F 80% 29.66 in 10.0 mi NNW 9.2 mph 24.2 mph 0.01 in   Mostly Cloudy
11:51 PM 28.9 °F 20.4 °F 25.0 °F 85% 29.68 in 10.0 mi NW 9.2 mph - 0.01 in   Mostly Cloudy